GW3531 Weather Reports


time (UTC)temp
F
wind
direction
speed
knots
gust
knots
rain 1hr
in
rain 24hr
in
rain mn
in
humidity
%
barometer
mb
20260504033059 56 235 5.2 9.6 0.00 0.00 0.00 40 1012.8
20260504031555 57 197 3.5 11.3 0.00 0.00 0.00 40 1012.6
20260504030055 57 214 5.2 8.7 0.00 0.00 0.00 43 1012.7
20260504024556 57 227 4.3 8.7 0.00 0.00 0.00 41 1012.6
20260504023057 57 202 3.5 6.1 0.00 0.00 0.00 41 1012.7
20260504021555 57 216 4.3 8.7 0.00 0.00 0.00 40 1012.7
20260504020127 58 222 4.3 7.8 0.00 0.00 0.00 36 1012.7
20260504014604 58 178 2.6 5.2 0.00 0.00 0.00 37 1012.6
20260504013116 58 192 2.6 4.3 0.00 0.00 0.00 36 1012.4
20260504011553 58 213 4.3 7.0 0.00 0.00 0.00 40 1012.3
20260504010054 58 195 1.7 3.5 0.00 0.00 0.00 40 1012.1
20260504004623 58 236 2.6 4.3 0.00 0.00 0.00 38 1012.0
20260504003059 59 243 1.7 5.2 0.00 0.00 0.00 35 1011.8
20260504001621 59 269 1.7 5.2 0.00 0.00 0.00 34 1011.5
20260504000104 59 301 1.7 6.1 0.00 0.00 0.00 32 1011.3
20260503234604 59 336 3.5 7.8 0.00 0.00 0.00 29 1011.2
20260503233101 60 331 3.5 12.2 0.00 0.00 0.00 32 1011.0
20260503231556 60 282 5.2 12.2 0.00 0.00 0.00 30 1011.0
20260503230112 60 313 6.1 13.9 0.00 0.00 0.00 28 1010.9
20260503224604 60 312 5.2 13.9 0.00 0.00 0.00 29 1010.8
20260503223057 59 279 7.0 16.5 0.00 0.00 0.00 28 1010.8
20260503221603 59 317 8.7 20.0 0.00 0.00 0.00 28 1010.7
20260503220058 59 316 7.0 17.4 0.00 0.00 0.00 29 1010.9
20260503214602 59 310 9.6 16.5 0.00 0.01 0.00 29 1010.8
20260503213053 58 303 9.6 22.6 0.00 0.01 0.00 31 1010.7
20260503211556 58 310 9.6 15.6 0.00 0.01 0.00 33 1010.8
20260503210053 57 295 12.2 20.0 0.00 0.01 0.00 30 1010.6
20260503204558 57 316 11.3 20.0 0.00 0.01 0.00 33 1010.4
20260503203115 57 312 7.8 21.7 0.00 0.01 0.00 31 1010.8
20260503201604 57 304 8.7 20.9 0.00 0.01 0.00 32 1010.7
20260503200056 56 281 7.0 20.9 0.00 0.01 0.00 32 1011.1
20260503194558 56 316 12.2 24.3 0.00 0.01 0.00 34 1011.1
20260503193056 55 296 14.8 24.3 0.00 0.01 0.00 33 1011.1
20260503191556 55 297 8.7 19.1 0.00 0.01 0.00 36 1011.2
20260503190110 54 265 7.8 18.2 0.00 0.01 0.00 36 1011.5
20260503184604 54 297 8.7 20.9 0.00 0.01 0.00 37 1011.6
20260503183101 53 274 8.7 23.5 0.00 0.01 0.00 39 1011.6
20260503181605 52 306 9.6 20.9 0.00 0.01 0.00 41 1011.5
20260503180055 52 257 14.8 20.0 0.00 0.01 0.00 42 1011.7
20260503174603 51 260 10.4 18.2 0.00 0.01 0.00 42 1011.8
20260503173105 52 308 10.4 21.7 0.00 0.01 0.00 44 1012.0
20260503171601 51 345 12.2 21.7 0.00 0.01 0.00 45 1011.6
20260503100106 46 355 11.3 18.2 0.00 0.01 0.00 56 1011.0
20260503081601 48 22 13.0 20.9 0.00 0.01 0.00 56 1010.4
20260503071559 49 34 9.6 13.9 0.00 0.01 0.00 56 1010.5
20260503060119 50 21 12.2 14.8 0.00 0.02 0.00 55 1010.7
20260503054627 51 10 13.0 16.5 0.00 0.02 0.00 55 1010.7
20260503053056 51 32 13.0 16.5 0.00 0.02 0.00 51 1010.7
20260503051601 51 11 13.0 15.6 0.00 0.02 0.00 50 1011.2
20260503050057 52 12 12.2 16.5 0.00 0.02 0.00 47 1011.2
20260503044554 52 360 9.6 13.0 0.00 0.02 0.00 47 1011.2
20260503043052 52 6 11.3 16.5 0.00 0.02 0.00 47 1011.3
20260503041556 53 4 11.3 16.5 0.00 0.02 0.00 49 1011.5
20260503040100 53 15 9.6 13.0 0.00 0.02 0.00 45 1011.5
20260503034555 53 355 11.3 14.8 0.00 0.02 0.02 43 1011.4